Terminal Aerodrome Forecast
Issued by NWS Upton, NY

Home | Current Version | Previous Version | Text Only | Print | Product List | Glossary On
Versions: 1 2 3 4 5 6 7 8 9 10 11 12 13 14 15 16 17 18 19 20 21 22 23 24 25 26 27 28 29
000
FTUS41 KOKX 242000 AAA
TAFLGA
TAF AMD
KLGA 242030Z 2421/2518 33017G28KT P6SM SKC
     FM250200 33012G18KT P6SM SKC
     FM250400 33008KT P6SM SKC
     FM251500 14008KT P6SM SCT250=

USA.gov is the U.S. government's official web portal to all federal, state and local government web resources and services.